Location: Peterborough
(44.3091°N, 78.3197°W)
Time: 16:26:56
(UTC-04:00)

Explorer 7 - Pass Details

Date: 30 March 2023
Orbit: 477 x 653 km, 50.3° (Epoch: 04 June)

Event Time Altitude Azimuth Distance (km) Brightness Sun altitude
Rises 21:28:35 0° 297° (WNW) 2,794 12.1 -19.7°
Reaches altitude 10° 21:30:55 10° 295° (WNW) 1,860 10.7 -20.1°
Maximum altitude 21:35:08 72° 212° (SSW) 570 6.8 -20.7°
Enters shadow 21:35:38 62° 160° (SSE) 604 6.7 -20.8°
Drops below altitude 10° 21:39:05 10° 128° (SE) 1,742 - -21.4°
Sets 21:41:13 0° 126° (SE) 2,600 - -21.7°
